| time (UTC) | temp C | wind direction | speed KPH | gust KPH | rain 1hr cm | rain 24hr cm | rain mn cm | humidity % | barometer mb |
| 20260504050558 | 15 | 267 | 1.6 | 4.8 | 0.00 | 0.00 | 0.00 | 71 | 1020.6 |
| 20260504045822 | 15 | 257 | 3.2 | 4.8 | 0.00 | 0.00 | 0.00 | 70 | 1020.6 |
| 20260504045325 | 16 | 258 | 3.2 | 4.8 | 0.00 | 0.00 | 0.00 | 70 | 1020.7 |
| 20260504044816 | 16 | 262 | 1.6 | 3.2 | 0.00 | 0.00 | 0.00 | 68 | 1020.7 |
| 20260504044057 | 16 | 268 | 1.6 | 4.8 | 0.00 | 0.00 | 0.00 | 68 | 1020.5 |
| 20260504043557 | 16 | 263 | 3.2 | 4.8 | 0.00 | 0.00 | 0.00 | 68 | 1020.7 |
| 20260504043057 | 16 | 277 | 1.6 | 3.2 | 0.00 | 0.00 | 0.00 | 67 | 1020.6 |
| 20260504042558 | 16 | 267 | 3.2 | 6.4 | 0.00 | 0.00 | 0.00 | 68 | 1020.6 |
| 20260504042320 | 16 | 249 | 3.2 | 6.4 | 0.00 | 0.00 | 0.00 | 67 | 1020.7 |
| 20260504041823 | 16 | 259 | 1.6 | 4.8 | 0.00 | 0.00 | 0.00 | 67 | 1020.5 |
| 20260504041058 | 16 | 266 | 1.6 | 4.8 | 0.00 | 0.00 | 0.00 | 67 | 1020.7 |
| 20260504040558 | 16 | 272 | 3.2 | 4.8 | 0.00 | 0.00 | 0.00 | 66 | 1020.6 |
| 20260504040057 | 16 | 255 | 1.6 | 4.8 | 0.00 | 0.00 | 0.00 | 67 | 1021.0 |
| 20260504035558 | 16 | 248 | 1.6 | 4.8 | 0.00 | 0.00 | 0.00 | 65 | 1020.7 |
| 20260504035057 | 16 | 271 | 1.6 | 4.8 | 0.00 | 0.00 | 0.00 | 67 | 1020.6 |
| 20260504034557 | 16 | 263 | 3.2 | 6.4 | 0.00 | 0.00 | 0.00 | 67 | 1020.7 |
| 20260504034057 | 16 | 266 | 3.2 | 6.4 | 0.00 | 0.00 | 0.00 | 66 | 1020.7 |
| 20260504033557 | 16 | 258 | 3.2 | 4.8 | 0.00 | 0.00 | 0.00 | 67 | 1020.4 |
| 20260504033319 | 16 | 245 | 3.2 | 4.8 | 0.00 | 0.00 | 0.00 | 67 | 1020.5 |
| 20260504032558 | 16 | 277 | 1.6 | 4.8 | 0.00 | 0.00 | 0.00 | 66 | 1020.4 |
| 20260504032057 | 16 | 275 | 3.2 | 4.8 | 0.00 | 0.00 | 0.00 | 67 | 1020.5 |
| 20260504031820 | 16 | 253 | 3.2 | 4.8 | 0.00 | 0.00 | 0.00 | 67 | 1020.4 |
| 20260504031057 | 16 | 293 | 3.2 | 4.8 | 0.00 | 0.00 | 0.00 | 67 | 1020.5 |
| 20260504030057 | 16 | 263 | 1.6 | 3.2 | 0.00 | 0.00 | 0.00 | 65 | 1020.4 |
| 20260504025558 | 17 | 274 | 0.0 | 3.2 | 0.00 | 0.00 | 0.00 | 64 | 1020.3 |
| 20260504025057 | 17 | 269 | 1.6 | 4.8 | 0.00 | 0.00 | 0.00 | 64 | 1020.5 |
| 20260504024557 | 17 | 262 | 1.6 | 4.8 | 0.00 | 0.00 | 0.00 | 61 | 1020.5 |
| 20260504024318 | 17 | 243 | 3.2 | 4.8 | 0.00 | 0.00 | 0.00 | 61 | 1020.5 |
| 20260504023557 | 17 | 267 | 1.6 | 4.8 | 0.00 | 0.00 | 0.00 | 61 | 1020.5 |
| 20260504023110 | 17 | 252 | 3.2 | 6.4 | 0.00 | 0.00 | 0.00 | 60 | 1020.5 |
| 20260504022557 | 17 | 266 | 1.6 | 6.4 | 0.00 | 0.00 | 0.00 | 60 | 1020.6 |
| 20260504022057 | 17 | 258 | 3.2 | 6.4 | 0.00 | 0.00 | 0.00 | 60 | 1020.5 |
| 20260504021557 | 17 | 267 | 3.2 | 4.8 | 0.00 | 0.00 | 0.00 | 59 | 1020.4 |
| 20260504021057 | 17 | 263 | 3.2 | 4.8 | 0.00 | 0.00 | 0.00 | 60 | 1020.5 |
| 20260504020558 | 17 | 261 | 1.6 | 6.4 | 0.00 | 0.00 | 0.00 | 60 | 1020.3 |
| 20260504020057 | 17 | 253 | 3.2 | 6.4 | 0.00 | 0.00 | 0.00 | 60 | 1020.4 |
| 20260504015557 | 17 | 267 | 3.2 | 4.8 | 0.00 | 0.00 | 0.00 | 61 | 1020.1 |
| 20260504015057 | 17 | 246 | 3.2 | 4.8 | 0.00 | 0.00 | 0.00 | 60 | 1020.3 |
| 20260504014818 | 18 | 227 | 3.2 | 3.2 | 0.00 | 0.00 | 0.00 | 60 | 1020.2 |
| 20260504014057 | 18 | 281 | 1.6 | 3.2 | 0.00 | 0.00 | 0.00 | 59 | 1020.1 |
| 20260504013604 | 18 | 285 | 1.6 | 3.2 | 0.00 | 0.00 | 0.00 | 59 | 1019.8 |
| 20260504013314 | 18 | 242 | 0.0 | 3.2 | 0.00 | 0.00 | 0.00 | 58 | 1019.8 |
| 20260504012558 | 18 | 309 | 0.0 | 3.2 | 0.00 | 0.00 | 0.00 | 56 | 1019.9 |
| 20260504012057 | 18 | 284 | 1.6 | 3.2 | 0.00 | 0.00 | 0.00 | 56 | 1019.7 |
| 20260504011558 | 18 | 238 | 3.2 | 3.2 | 0.00 | 0.00 | 0.00 | 56 | 1019.8 |
| 20260504011057 | 19 | 261 | 1.6 | 4.8 | 0.00 | 0.00 | 0.00 | 56 | 1019.7 |
| 20260504010814 | 19 | 256 | 3.2 | 4.8 | 0.00 | 0.00 | 0.00 | 54 | 1019.8 |
| 20260504010057 | 19 | 269 | 1.6 | 4.8 | 0.00 | 0.00 | 0.00 | 53 | 1019.6 |
| 20260504005557 | 20 | 236 | 1.6 | 4.8 | 0.00 | 0.00 | 0.00 | 53 | 1019.5 |
| 20260504005057 | 20 | 306 | 1.6 | 4.8 | 0.00 | 0.00 | 0.00 | 52 | 1019.4 |
| 20260504004557 | 20 | 272 | 3.2 | 4.8 | 0.00 | 0.00 | 0.00 | 52 | 1019.8 |
| 20260504004057 | 20 | 307 | 0.0 | 4.8 | 0.00 | 0.00 | 0.00 | 51 | 1019.7 |
| 20260504003557 | 20 | 226 | 1.6 | 4.8 | 0.00 | 0.00 | 0.00 | 51 | 1019.5 |
| 20260504003104 | 20 | 235 | 1.6 | 3.2 | 0.00 | 0.00 | 0.00 | 50 | 1019.4 |
| 20260504002557 | 21 | 295 | 1.6 | 6.4 | 0.00 | 0.00 | 0.00 | 50 | 1019.4 |
| 20260504002057 | 21 | 230 | 1.6 | 8.0 | 0.00 | 0.00 | 0.00 | 49 | 1019.3 |
| 20260504001057 | 21 | 290 | 0.0 | 6.4 | 0.00 | 0.00 | 0.00 | 46 | 1019.1 |
| 20260504000604 | 22 | 260 | 1.6 | 8.0 | 0.00 | 0.00 | 0.00 | 45 | 1019.4 |
| 20260504000317 | 22 | 266 | 0.0 | 8.0 | 0.00 | 0.00 | 0.00 | 44 | 1019.2 |
| 20260503235557 | 23 | 240 | 4.8 | 8.0 | 0.00 | 0.00 | 0.00 | 42 | 1019.2 |
| 20260503235057 | 24 | 266 | 0.0 | 8.0 | 0.00 | 0.00 | 0.00 | 39 | 1019.1 |
| 20260503234559 | 24 | 230 | 3.2 | 8.0 | 0.00 | 0.00 | 0.00 | 35 | 1019.0 |
| 20260503234057 | 24 | 217 | 6.4 | 8.0 | 0.00 | 0.00 | 0.00 | 34 | 1019.0 |
| 20260503233557 | 24 | 301 | 3.2 | 6.4 | 0.00 | 0.00 | 0.00 | 34 | 1019.3 |
| 20260503233057 | 24 | 249 | 3.2 | 6.4 | 0.00 | 0.00 | 0.00 | 34 | 1019.2 |
| 20260503232058 | 24 | 227 | 0.0 | 6.4 | 0.00 | 0.00 | 0.00 | 34 | 1019.3 |
| 20260503231557 | 25 | 210 | 1.6 | 11.3 | 0.00 | 0.00 | 0.00 | 34 | 1019.2 |
| 20260503231057 | 25 | 237 | 6.4 | 11.3 | 0.00 | 0.00 | 0.00 | 33 | 1019.2 |
| 20260503230558 | 25 | 198 | 1.6 | 9.7 | 0.00 | 0.00 | 0.00 | 33 | 1019.2 |
| 20260503230057 | 26 | 336 | 1.6 | 6.4 | 0.00 | 0.00 | 0.00 | 33 | 1019.1 |
| 20260503225557 | 25 | 325 | 1.6 | 6.4 | 0.00 | 0.00 | 0.00 | 33 | 1019.3 |
| 20260503225057 | 25 | 329 | 0.0 | 3.2 | 0.00 | 0.00 | 0.00 | 33 | 1019.1 |
| 20260503224557 | 25 | 315 | 0.0 | 4.8 | 0.00 | 0.00 | 0.00 | 32 | 1019.1 |
| 20260503224057 | 25 | 237 | 0.0 | 8.0 | 0.00 | 0.00 | 0.00 | 32 | 1019.1 |
| 20260503223823 | 25 | 224 | 0.0 | 8.0 | 0.00 | 0.00 | 0.00 | 35 | 1019.3 |
| 20260503223057 | 25 | 310 | 3.2 | 9.7 | 0.00 | 0.00 | 0.00 | 32 | 1019.2 |
| 20260503222557 | 25 | 313 | 3.2 | 9.7 | 0.00 | 0.00 | 0.00 | 32 | 1019.4 |
| 20260503222057 | 26 | 247 | 8.0 | 8.0 | 0.00 | 0.00 | 0.00 | 31 | 1019.3 |
| 20260503221558 | 26 | 11 | 0.0 | 8.0 | 0.00 | 0.00 | 0.00 | 32 | 1019.5 |
| 20260503221057 | 25 | 1 | 1.6 | 8.0 | 0.00 | 0.00 | 0.00 | 31 | 1019.4 |
| 20260503220557 | 25 | 327 | 4.8 | 6.4 | 0.00 | 0.00 | 0.00 | 31 | 1019.2 |
| 20260503220324 | 25 | 355 | 3.2 | 8.0 | 0.00 | 0.00 | 0.00 | 30 | 1019.3 |
| 20260503215557 | 26 | 350 | 3.2 | 8.0 | 0.00 | 0.00 | 0.00 | 29 | 1019.3 |
| 20260503215057 | 26 | 309 | 3.2 | 12.9 | 0.00 | 0.00 | 0.00 | 30 | 1019.3 |
| 20260503214558 | 26 | 233 | 6.4 | 12.9 | 0.00 | 0.00 | 0.00 | 29 | 1019.5 |
| 20260503214057 | 26 | 284 | 3.2 | 11.3 | 0.00 | 0.00 | 0.00 | 30 | 1019.5 |
| 20260503213828 | 26 | 167 | 1.6 | 9.7 | 0.00 | 0.00 | 0.00 | 32 | 1019.5 |
| 20260503213323 | 26 | 236 | 4.8 | 9.7 | 0.00 | 0.00 | 0.00 | 30 | 1019.4 |
| 20260503212604 | 27 | 348 | 3.2 | 12.9 | 0.00 | 0.00 | 0.00 | 30 | 1019.6 |
| 20260503212057 | 26 | 227 | 0.0 | 12.9 | 0.00 | 0.00 | 0.00 | 32 | 1019.5 |
| 20260503211557 | 26 | 210 | 3.2 | 6.4 | 0.00 | 0.00 | 0.00 | 30 | 1019.6 |
| 20260503211057 | 26 | 40 | 0.0 | 8.0 | 0.00 | 0.00 | 0.00 | 30 | 1019.9 |
| 20260503210604 | 26 | 325 | 4.8 | 8.0 | 0.00 | 0.00 | 0.00 | 30 | 1019.8 |
| 20260503210058 | 26 | 112 | 1.6 | 8.0 | 0.00 | 0.00 | 0.00 | 31 | 1019.8 |
| 20260503205557 | 26 | 182 | 1.6 | 8.0 | 0.00 | 0.00 | 0.00 | 29 | 1019.8 |
| 20260503205057 | 27 | 57 | 1.6 | 9.7 | 0.00 | 0.00 | 0.00 | 30 | 1020.0 |
| 20260503204557 | 26 | 15 | 1.6 | 9.7 | 0.00 | 0.00 | 0.00 | 30 | 1020.1 |
| 20260503204057 | 26 | 298 | 4.8 | 14.5 | 0.00 | 0.00 | 0.00 | 29 | 1020.2 |
| 20260503203557 | 26 | 344 | 1.6 | 14.5 | 0.00 | 0.00 | 0.00 | 29 | 1020.3 |
| 20260503203057 | 26 | 202 | 3.2 | 12.9 | 0.00 | 0.00 | 0.00 | 31 | 1020.5 |
| 20260503202825 | 26 | 306 | 0.0 | 8.0 | 0.00 | 0.00 | 0.00 | 30 | 1020.5 |
| 20260503202057 | 26 | 217 | 1.6 | 8.0 | 0.00 | 0.00 | 0.00 | 31 | 1020.4 |
| 20260503201604 | 25 | 301 | 3.2 | 9.7 | 0.00 | 0.00 | 0.00 | 31 | 1020.6 |
| 20260503201057 | 25 | 212 | 4.8 | 17.7 | 0.00 | 0.00 | 0.00 | 30 | 1020.6 |
| 20260503200557 | 25 | 235 | 8.0 | 17.7 | 0.00 | 0.00 | 0.00 | 32 | 1020.6 |
| 20260503200318 | 25 | 225 | 4.8 | 17.7 | 0.00 | 0.00 | 0.00 | 30 | 1020.9 |
| 20260503195557 | 26 | 22 | 3.2 | 11.3 | 0.00 | 0.00 | 0.00 | 29 | 1021.0 |
| 20260503195057 | 26 | 25 | 0.0 | 6.4 | 0.00 | 0.00 | 0.00 | 31 | 1020.8 |
| 20260503194605 | 26 | 299 | 1.6 | 9.7 | 0.00 | 0.00 | 0.00 | 30 | 1021.1 |
| 20260503194104 | 25 | 233 | 6.4 | 11.3 | 0.00 | 0.00 | 0.00 | 30 | 1021.1 |
| 20260503193604 | 25 | 265 | 1.6 | 11.3 | 0.00 | 0.00 | 0.00 | 30 | 1021.0 |
| 20260503193326 | 26 | 246 | 8.0 | 8.0 | 0.00 | 0.00 | 0.00 | 31 | 1021.1 |
| 20260503192557 | 26 | 179 | 3.2 | 4.8 | 0.00 | 0.00 | 0.00 | 30 | 1021.1 |
| 20260503192057 | 26 | 148 | 3.2 | 14.5 | 0.00 | 0.00 | 0.00 | 31 | 1021.3 |
| 20260503191815 | 25 | 86 | 4.8 | 14.5 | 0.00 | 0.00 | 0.00 | 31 | 1021.3 |
| 20260503191057 | 26 | 8 | 1.6 | 12.9 | 0.00 | 0.00 | 0.00 | 29 | 1021.7 |
| 20260503190557 | 25 | 223 | 1.6 | 12.9 | 0.00 | 0.00 | 0.00 | 34 | 1021.6 |
| 20260503185558 | 25 | 30 | 0.0 | 12.9 | 0.00 | 0.00 | 0.00 | 31 | 1021.8 |
| 20260503185057 | 25 | 154 | 1.6 | 12.9 | 0.00 | 0.00 | 0.00 | 32 | 1021.8 |
| 20260503184557 | 25 | 209 | 3.2 | 16.1 | 0.00 | 0.00 | 0.00 | 30 | 1022.0 |
| 20260503184057 | 25 | 261 | 8.0 | 16.1 | 0.00 | 0.00 | 0.00 | 30 | 1022.2 |
| 20260503183557 | 25 | 341 | 3.2 | 9.7 | 0.00 | 0.00 | 0.00 | 33 | 1022.3 |
| 20260503183322 | 25 | 184 | 0.0 | 9.7 | 0.00 | 0.00 | 0.00 | 30 | 1022.3 |
| 20260503182604 | 25 | 234 | 4.8 | 9.7 | 0.00 | 0.00 | 0.00 | 32 | 1022.1 |
| 20260503182057 | 25 | 83 | 6.4 | 9.7 | 0.00 | 0.00 | 0.00 | 32 | 1022.3 |
| 20260503181558 | 25 | 294 | 3.2 | 8.0 | 0.00 | 0.00 | 0.00 | 32 | 1022.4 |
| 20260503181057 | 25 | 318 | 1.6 | 11.3 | 0.00 | 0.00 | 0.00 | 32 | 1022.6 |
| 20260503180557 | 24 | 209 | 3.2 | 11.3 | 0.00 | 0.00 | 0.00 | 29 | 1022.6 |
| 20260503180057 | 24 | 315 | 3.2 | 8.0 | 0.00 | 0.00 | 0.00 | 30 | 1022.7 |
| 20260503175819 | 24 | 330 | 3.2 | 8.0 | 0.00 | 0.00 | 0.00 | 33 | 1022.9 |
| 20260503175057 | 24 | 259 | 1.6 | 14.5 | 0.00 | 0.00 | 0.00 | 29 | 1022.9 |
| 20260503174057 | 24 | 215 | 6.4 | 8.0 | 0.00 | 0.00 | 0.00 | 31 | 1022.7 |
| 20260503173557 | 23 | 290 | 8.0 | 12.9 | 0.00 | 0.00 | 0.00 | 32 | 1022.9 |
| 20260503173105 | 23 | 350 | 3.2 | 14.5 | 0.00 | 0.00 | 0.00 | 31 | 1023.0 |
| 20260503172557 | 24 | 223 | 4.8 | 6.4 | 0.00 | 0.00 | 0.00 | 33 | 1022.9 |
| 20260503172057 | 23 | 298 | 6.4 | 6.4 | 0.00 | 0.00 | 0.00 | 34 | 1023.2 |
| 20260503171557 | 23 | 233 | 1.6 | 6.4 | 0.00 | 0.00 | 0.00 | 35 | 1023.1 |
| 20260503171058 | 23 | 339 | 3.2 | 6.4 | 0.00 | 0.00 | 0.00 | 33 | 1023.1 |
| 20260503170557 | 23 | 281 | 3.2 | 6.4 | 0.00 | 0.00 | 0.00 | 34 | 1023.2 |
| 20260503150557 | 21 | 210 | 1.6 | 8.0 | 0.00 | 0.00 | 0.00 | 38 | 1023.9 |
| 20260503150317 | 20 | 248 | 0.0 | 8.0 | 0.00 | 0.00 | 0.00 | 41 | 1023.8 |
| 20260503131057 | 16 | 236 | 3.2 | 4.8 | 0.00 | 0.00 | 0.00 | 59 | 1022.9 |
| 20260503130557 | 15 | 298 | 0.0 | 4.8 | 0.00 | 0.00 | 0.00 | 61 | 1022.9 |
| 20260503120104 | 10 | 274 | 3.2 | 4.8 | 0.00 | 0.03 | 0.00 | 81 | 1022.4 |
| 20260503110558 | 9 | 304 | 1.6 | 4.8 | 0.00 | 0.05 | 0.00 | 84 | 1022.1 |
| 20260503090104 | 10 | 320 | 3.2 | 6.4 | 0.00 | 0.25 | 0.00 | 79 | 1021.2 |
| 20260503081057 | 10 | 343 | 1.6 | 8.0 | 0.00 | 0.36 | 0.00 | 80 | 1020.7 |
| 20260503080822 | 10 | 288 | 1.6 | 4.8 | 0.00 | 0.36 | 0.00 | 80 | 1021.0 |
| 20260503072557 | 10 | 269 | 0.0 | 4.8 | 0.00 | 0.51 | 0.00 | 77 | 1020.7 |
| 20260503072058 | 10 | 221 | 0.0 | 4.8 | 0.00 | 0.51 | 0.00 | 77 | 1020.6 |
| 20260503071557 | 10 | 284 | 3.2 | 3.2 | 0.00 | 0.53 | 0.00 | 76 | 1020.6 |
| 20260503071057 | 10 | 281 | 1.6 | 3.2 | 0.00 | 0.56 | 0.00 | 76 | 1020.6 |
| 20260503070558 | 10 | 252 | 0.0 | 3.2 | 0.00 | 0.56 | 0.00 | 75 | 1020.6 |
| 20260503055057 | 12 | 276 | 3.2 | 3.2 | 0.00 | 0.94 | 0.00 | 63 | 1020.4 |
| 20260503054058 | 13 | 242 | 0.0 | 3.2 | 0.00 | 1.02 | 0.00 | 60 | 1020.4 |
| 20260503053557 | 13 | 295 | 1.6 | 3.2 | 0.00 | 1.07 | 0.00 | 59 | 1020.2 |
| 20260503053057 | 13 | 272 | 1.6 | 3.2 | 0.00 | 1.12 | 0.00 | 58 | 1020.3 |
| 20260503052604 | 13 | 277 | 0.0 | 3.2 | 0.00 | 1.17 | 0.00 | 59 | 1020.2 |
| 20260503052057 | 13 | 282 | 0.0 | 3.2 | 0.00 | 1.22 | 0.00 | 57 | 1020.3 |